This is the latest recevied weather packets stored in our database for station/object N5PRN. If no packets are shown the sender has not sent any weather packets the latest 10 day(s).
| Time | Temp. | Humidity | Pressure | Rain* | Wind** | Luminosity | Snow |
|---|---|---|---|---|---|---|---|
| 1777911316 | 23.33° C | 56% | 1016.9 hPa | 0 mm | - | 811 W/m² | - |
| 1777911015 | 23.33° C | 53% | 1016.7 hPa | 0 mm | - | 820 W/m² | - |
| 1777910712 | 23.33° C | 55% | 1016.7 hPa | 0 mm | - | 871 W/m² | - |
| 1777910408 | 23.33° C | 57% | 1016.9 hPa | 0 mm | - | 879 W/m² | - |
| 1777910104 | 22.78° C | 57% | 1016.9 hPa | 0 mm | - | 917 W/m² | - |
| 1777909803 | 22.78° C | 57% | 1017 hPa | 0 mm | - | 937 W/m² | - |
| 1777909499 | 22.78° C | 57% | 1016.9 hPa | 0 mm | - | 950 W/m² | - |
| 1777909196 | 22.78° C | 58% | 1016.9 hPa | 0 mm | - | 978 W/m² | - |
| 1777908894 | 22.78° C | 56% | 1017.1 hPa | 0 mm | - | 959 W/m² | - |
| 1777908591 | 22.22° C | 58% | 1017.4 hPa | 0 mm | - | 963 W/m² | - |
| 1777908288 | 22.22° C | 60% | 1017.5 hPa | 0 mm | - | 882 W/m² | - |
| 1777907984 | 22.22° C | 60% | 1017.2 hPa | 0 mm | - | 810 W/m² | - |
| 1777907680 | 22.22° C | 61% | 1017.1 hPa | 0 mm | - | 764 W/m² | - |
| 1777907376 | 22.22° C | 62% | 1017 hPa | 0 mm | - | 741 W/m² | - |
| 1777907072 | 21.67° C | 66% | 1016.9 hPa | 0 mm | - | 713 W/m² | - |
| 1777906770 | 21.67° C | 67% | 1017.2 hPa | 0 mm | - | 705 W/m² | - |
| 1777906467 | 21.67° C | 68% | 1017.3 hPa | 0 mm | - | 716 W/m² | - |
| 1777906163 | 21.11° C | 70% | 1017.3 hPa | 0 mm | - | 660 W/m² | - |
| 1777905860 | 20.56° C | 72% | 1017.1 hPa | 0 mm | - | 659 W/m² | - |
| 1777905557 | 20° C | 72% | 1017.1 hPa | 0 mm | - | 663 W/m² | - |
| 1777905254 | 20° C | 74% | 1017.1 hPa | 0 mm | - | 612 W/m² | - |
| 1777904951 | 20° C | 76% | 1017.1 hPa | 0 mm | - | 577 W/m² | - |
| 1777904648 | 19.44° C | 75% | 1017.1 hPa | 0 mm | - | 553 W/m² | - |
| 1777904345 | 19.44° C | 76% | 1017.3 hPa | 0 mm | - | 505 W/m² | - |
| 1777904042 | 18.89° C | 78% | 1017.3 hPa | 0 mm | - | 516 W/m² | - |
* Rain latest hour (hover to see other rain measurements)
** Current wind speed in m/s (hover to see current wind gust speed)